Weather in Ak-Durug

Russia / Tyva Republic     51°23′46″N   92°11′52″E
temp.,
°C
wind,
m/s
gust,
m/s
humid.,
%
clouds,
%
prec.,
mm/h
press.,
hPa
HPBL,
m
29 november, mon
mon2901:00−16w228544 0.0 104512
04:00−17w22878 0.0 104611
07:00−18w228911 0.0 104711
10:00−15wnw118811 0.0 104724
13:00−12ene1187100 0.0 1045120
16:00−14sse0096100 0.0 104410
19:00−16w229692 0.1 104516
22:00−17w2296100 0.0 104513
30 november, tue
tue3001:00−17w2295100 0.1 104414
04:00−18w229482 0.0 104311
07:00−19w229492 0.0 104311
10:00−17w1194100 0.0 104336
13:00−14ene1190100 0.0 1041137
16:00−15ese0097100 0.0 10409
19:00−17wnw2296100 0.0 104211
22:00−19w2294100 0.0 104311
1 december, wed
wed101:00−19w229467 0.0 104310
04:00−19w229577 0.0 104310
07:00−20w229682 0.0 104410
10:00−18wnw119481 0.0 104424
13:00−14ene108933 0.0 1042125
16:00−17sse119756 0.0 10439
19:00−19w219946 0.0 104410
22:00−20wsw229859 0.0 104511
2 december, thu
thu201:00−21w229781 0.1 104511
04:00−21w229781 0.0 104411
07:00−22w119788 0.1 104410
10:00−20wnw119883 0.0 104431
13:00−17ene119152 0.1 1041142
16:00−19ssw009760 0.0 10419
19:00−22w229952 0.0 104314
22:00−22w229525 0.0 104312
3 december, fri
fri301:00−22w229544 0.0 104212
04:00−23w229566 0.0 104211
07:00−24w119887 0.0 104212
10:00−22w119877 0.0 104244
13:00−18ne119259 0.1 1038155
16:00−20wsw019859 0.0 10379
19:00−23w229977 0.0 103815
22:00−23w119798 0.0 103713